Regional Weather Roundup
Issued by NWS

Home | Current Version | Previous Version | Text Only | Print | Product List | Glossary Off
Versions: 1 2 3 4 5 6 7 8 9 10 11 12 13 14 15 16 17 18 19 20 21 22 23 24 25 26 27 28 29 30 31 32 33 34 35 36 37 38 39 40 41 42 43 44 45 46 47 48 49 50

000
ASUS43 KIND 231709
RWRIN

WEATHER ROUNDUP FOR INDIANA
NATIONAL WEATHER SERVICE INDIANAPOLIS IN
1200 PM EST MON JAN 23 2017

NOTE: "FAIR" INDICATES FEW OR NO CLOUDS BELOW 12,000 FEET WITH NO
SIGNIFICANT WEATHER AND/OR OBSTRUCTIONS TO VISIBILITY.

* - STATION DOES NOT REPORT WEATHER SUCH AS PRECIPITATION OR FOG.

+ - STATION NOT QUALITY CONTROLLED BY THE NATIONAL WEATHER SERVICE.
    USE DATA WITH CAUTION...ESPECIALLY DEWPOINT AND RELATIVE
    HUMIDITY OBSERVATIONS.

INZ001>003-010>013-019-020-231800-
NORTHWEST INDIANA

CITY           SKY/WX    TMP DP  RH WIND       PRES   REMARKS
GARY /AIRPORT/ CLOUDY    39  36  87 N8        29.78S
KNOX *+        CLOUDY    37  28  70 N14       29.73S
LA PORTE +     CLOUDY    37  37  98 N15G22    29.74F FOG
MICHIGAN CITY+ CLOUDY    36  36 100 N9        29.75F FOG
MONTICELLO +   CLOUDY    40  38  91 NW18      29.72S
RENSSELAER +   CLOUDY    39  37  93 N10       29.75F
VALPARAISO     CLOUDY    40  38  93 N9        29.75F

$$

LMZ046-743>745-231800-
SOUTHERN LAKE MICHIGAN

STATION/POSITION TIME  TEMP    WIND        PRES    WAVE
                       AIR SEA DIR/SP/G            HT
                 (UTC) (F)     (DEG/KT/KT) (MB)    (FT)
BURNS HARBOR     1640   36     350/  9/ 11 1008.8S
MICHIGAN CITY    1640   36     360/ 15/ 16   N/A

$$

INZ004-005-014>016-021>024-231800-
NORTH CENTRAL INDIANA

CITY           SKY/WX    TMP DP  RH WIND       PRES   REMARKS
ELKHART        CLOUDY    39  39 100 N12       29.71S FOG
GOSHEN         CLOUDY    42  39  89 N13       29.68F FOG
LOGANSPORT +   CLOUDY    39  37  93 NW13G20   29.70F FOG
PERU/GRISSOM   CLOUDY    42  42 100 NW12      29.66F
ROCHESTER +    CLOUDY    43  41  93 NW13      29.69F FOG
SOUTH BEND     CLOUDY    39  38  96 N15       29.72F FOG
WARSAW +       CLOUDY    39  39 100 N12G17    29.68F FOG

$$

INZ006>009-017-018-025>027-231800-
NORTHEAST INDIANA

CITY           SKY/WX    TMP DP  RH WIND       PRES   REMARKS
ANGOLA *+      CLOUDY    43  34  70 N6        29.66F
AUBURN +       CLOUDY    43  41  93 N6        29.66F FOG
FORT WAYNE     DRIZZLE   45  43  93 N9        29.66S FOG
HUNTINGTON +   CLOUDY    43  42  96 N8        29.66F FOG
KENDALLVILLE + CLOUDY    42  42 100 N8        29.67S FOG

$$

INZ028-029-035-036-043>045-051>053-231800-
WEST CENTRAL INDIANA

CITY           SKY/WX    TMP DP  RH WIND       PRES   REMARKS
CRAWFORDSVL +  CLOUDY    38  38 100 NW13G18   29.71F FOG
GREENCASTLE +  CLOUDY    37  37 100 NW9G16    29.70F FOG
LAFAYETTE      CLOUDY    40  38  93 NW14G21   29.72F
TERRE HAUTE    CLOUDY    41  37  86 NW10      29.74S

$$

INZ030>032-037>040-046>048-054>057-064-065-231800-
CENTRAL INDIANA

CITY           SKY/WX    TMP DP  RH WIND       PRES   REMARKS
ANDERSON       CLOUDY    45  45 100 N12       29.65R FOG
CP ATTERBURY + CLOUDY    45  41  87 NW16G25   29.65S
COLUMBUS       CLOUDY    45  45 100 NW16G28   29.64S FOG
FISHERS *+     CLOUDY    41  41 100 N7G17     29.67S
FRANKFORT +    CLOUDY    43  41  95 N15G23    29.71S FOG
GREENWOOD *+   CLOUDY    45  44  97 N13       29.65F
INDIANAPOLIS   CLOUDY    43  41  93 NW15      29.66F FOG
-EAGLE CREEK   CLOUDY    43  40  89 N12       29.66S
KOKOMO +       CLOUDY    42  41  96 NW15      29.68S FOG
MARION +       CLOUDY    45  43  93 N12       29.66S FOG
MT COMFORT *+  CLOUDY    43  43 100 N15       29.65S
SHELBYVILLE    CLOUDY    46  43  89 N20       29.63R FOG
ZIONSVILLE +   CLOUDY    40  40  99 NW13G20   29.68S FOG

$$

INZ033-034-041-042-049-050-058-059-231800-
EAST CENTRAL INDIANA

CITY           SKY/WX    TMP DP  RH WIND       PRES   REMARKS
MUNCIE         LGT RAIN  46  44  93 N14       29.63S FOG

$$

INZ060-061-067>069-081>083-085>088-231800-
SOUTHWEST INDIANA

CITY           SKY/WX    TMP DP  RH WIND       PRES   REMARKS
EVANSVILLE     CLOUDY    43  36  76 NW12G29   29.73S HAZE
HUNTINGBURG *+ CLOUDY    43  39  87 NW16      29.69S
WASHINGTON +   CLOUDY    42  39  89 NW18G25   29.70F

$$

INZ062-063-066-070>080-084-089>092-231800-
SOUTH CENTRAL AND SOUTHEAST INDIANA

CITY           SKY/WX    TMP DP  RH WIND       PRES   REMARKS
BLOOMINGTON    CLOUDY    42  40  92 VRB6      29.67R FOG
MADISON *+     CLOUDY    45  45 100 NW15G22   29.60S
NORTH VERNON + CLOUDY   N/A N/A N/A N14G21    29.61R FOG
SEYMOUR +      CLOUDY    48  45  87 NW15      29.63S

$$




USA.gov is the U.S. government's official web portal to all federal, state and local government web resources and services.